Location: Béaulencourt
(50.0796°N, 2.8795°E)
Time: 12:22:31
(UTC+00:00)

ARIANE 6 FM1 Upper Stage - Pass Details

Date: 21 March 2026
Orbit: 524 x 604 km, 62.0° (Epoch: 14 April)

Event Time Altitude Azimuth Distance (km) Brightness Sun altitude
Exits shadow 02:45:22 34° 27° (NNE) 894 4.1 -28.1°
Drops below altitude 10° 02:47:48 10° 41° (NE) 1,789 6.2 -27.8°
Sets 02:50:01 0° 45° (NE) 2,675 7.4 -27.5°
